DELTA 1 DEB, 27481

Orbit data source: Space-Track

DELTA 1 DEB, 27481 is space debris in LEO originally from a launch on Thu, 04 Jul 1968 UTC launched from the Air Force Western Test Range (AFWTR). Debris objects in space refer to the collection of defunct objects orbiting the Earth. Examples of debris include non-operational satellites, rocket bodies, and fragments generated from explosions, collisions, or faulty payload assembly.

Loading next visibility...
Identifier
27481, 1968-055J
Orbit
LEO
Last TLE update
2 days ago
Origin
Manufacturer
Unknown
Mission
Spacecraft
Bus & Motor
Unknown
Mass
Unknown
Launch date (UTC)
1968-07-04 (57 years ago)
Launch vehicle
Unknown
Launch site
Air Force Western Test Range (AFWTR)
Object type
Payload
Rocket body
Debris
Shape & HBR
Unknown
Radar Cross Section
Small (<0.1 m²)

Expand to show TLE details & history

TLE from 2 days ago
0 DELTA 1 DEB
1 27481U 68055J   25182.43531178  .00008714  00000-0  12201-1 0  9993
2 27481 120.6844 348.7429 1710401 146.3352 225.8980 11.06390739473089
Epoch: 2025-07-01T10:26Z
TLE epoch observation values (Epoch: 2025-07-01T10:26:50.937Z)
Latitude
-0.00006°
Longitude
-87.70011°
Altitude
3,251.008 km
Speed
5.997 km/s
True Right ascension
23h 14m 58s
True Declination
0° 00' 00"
Sunlit
Object was in daylight at epoch
Visualization orbit readout
Latitude
-22.75726°
Longitude
82.14144°
Altitude
1,217.542 km
Speed
7.626 km/s
Apparent Right ascension
11h 38m 21s
Apparent Declination
-31° 53' 48"
Sunlit
Object is in daylight
Visualization observer readout
Local Sidereal Time
01:11:15
Azimuth
74.103° E
Elevation
-69.627°
Doppler factor
1
Orbital elements
Apogee altitude
3,583.666 km
Perigee altitude
673.659 km
Semi-major axis
8,506.8 km
Eccentricity
0.17104
Inclination
120.6844°
RAAN
348.7429°
Arg. of periapsis
146.3352°
True anomaly
Unknown
Mean anomaly
225.898°
Eccentric anomaly
Unknown
Mean motion
2.76627 °/min
Orbital period
130.14 mins
BSTAR
0.012201
Loading maneuver chart data...
Loading SW <> Apogee altitude chart data...
Loading historical data...
Loading historical data...
Loading historical data...
Loading historical data...
Loading historical data...
Loading historical data...
Loading historical data...

DELTA 1 DEB Visibility forecast

Observer location: undefined°, undefined°

Span
Click to sort rows by Start time (UTC) header in descending order
Start Az.
Max El. time (UTC)
Max El. Az.
Max El.
End time (UTC)
End Az.
8 mins2025-07-04 02:00:26.105Z37.688° NE2025-07-04 02:04:26.105Z353.915° N40.897°2025-07-04 02:08:26.105Z237.76° WSW
5 mins2025-07-04 04:06:26.105Z18.244° NNE2025-07-04 04:09:26.105Z344.14° N16.99°2025-07-04 04:11:26.105Z317.082° NNW
8 mins2025-07-04 06:08:26.105Z45.717° ENE2025-07-04 06:12:26.105Z12.779° NNE18.301°2025-07-04 06:16:26.105Z333.202° NNW
17 mins2025-07-04 08:05:26.105Z99.426° ESE2025-07-04 08:15:26.105Z39.917° NE35.169°2025-07-04 08:22:26.105Z328.9° NNW
22 mins2025-07-04 10:06:26.105Z144.635° SSE2025-07-04 10:19:26.105Z216.54° SW43.663°2025-07-04 10:28:26.105Z312.293° NW
18 mins2025-07-04 12:13:26.105Z194.815° SSW2025-07-04 12:23:26.105Z238.017° WSW22.252°2025-07-04 12:31:26.105Z283.422° WNW
|